Other Public Products
Issued by NWS Charleston, SC

Current Version | Previous Version | Graphics & Text | Print | Product List | Glossary On
Versions: 1 2 3 4 5 6 7 8 9 10 11 12 13 14 15 16 17 18 19 20 21 22 23 24 25 26 27 28 29 30 31 32 33 34 35 36 37 38 39 40 41 42 43 44 45 46 47 48 49 50
000 FPUS82 KCHS 270427 OPUCHS TEST...KCHS/KSAV Gateway Observations...TEST National Weather Service Charleston SC 1200 AM EDT THU JUL 27 2017 NOTE: "fair" indicates few or no clouds below 12,000 feet with no significant weather and/or obstructions to visibility. SCZ050-WAZ558-NCZ071-TXZ119-213-PAZ071-DCZ001-FLZ074-172-MI076- NYZ176-178-MAZ016-IL014-TNZ027-NJZ106-GAZ044-MD014-270500- ...Gateway Observations for Charleston International... CITY SKY/WX TMP DP RH WIND PRES REMARKS Chas Airport PTCLDY 77 74 90 NE3 30.08S Seattle PTCLDY 72 56 57 W5 30.03S Charlotte PTCLDY 78 73 84 S6 30.11S Dallas DFW CLOUDY 90 71 53 SE15 29.97S HX 96 Dallas Love CLOUDY 90 71 53 S20G26 29.98S HX 96 Philladelphia MOCLDY 67 61 81 S3 30.15S Wash National MOCLDY 75 71 87 SE7 30.11S Baltimore CLOUDY 73 67 81 SE5 30.12R Miami PTCLDY 84 74 71 E8 30.06R HX 91 Detroit CLOUDY 73 68 84 SE6 30.02F Newark PTCLDY 67 59 75 S7 30.14S Laguardia MOCLDY 70 58 65 S6 30.13S J F K MOCLDY 67 60 78 S5 30.14F Boston Logan CLOUDY 65 59 81 S10 30.10F Ft. Lauderdale PTCLDY 85 76 74 SE10 30.05S HX 94 Chicago O`Hare CLOUDY 78 70 76 S3 29.96S Chicago Midway CLOUDY 80 72 76 S8 29.96S Houston Bush PTCLDY 84 73 69 S6 30.05R HX 90 Houston Hobby PTCLDY 83 74 74 S6 30.05R Nashville MOCLDY 83 74 74 S7 30.05R Atlanta PTCLDY 76 65 68 S3 30.12R $$ GAZ044-118-TXZ119-213-NCZ071-DCZ001-MDZ014-506-PAZ021-071-NJZ106- NYZ176-178-MAZ106-OHZ011-021-055-MIZ076-KYZ091-ILZ014-INZ047- MNZ060-ONZ431-270500- ...Gateway Observations for Savannah International... CITY SKY/WX TMP DP RH WIND PRES REMARKS Savannah Arpt CLOUDY 77 72 84 N6 30.06F Atlanta PTCLDY 76 65 68 S3 30.12R Charlotte PTCLDY 78 73 84 S6 30.11S Dallas DFW CLOUDY 90 71 53 SE15 29.97S HX 96 Houston Bush PTCLDY 84 73 69 S6 30.05R HX 90 Wash National MOCLDY 75 71 87 SE7 30.11S Wash Dulles CLOUDY 74 65 73 SE5 30.10S Baltimore CLOUDY 73 67 81 SE5 30.12R Philadelphia MOCLDY 67 61 81 S3 30.15S Newark PTCLDY 67 59 75 S7 30.14S Laguardia MOCLDY 70 58 65 S6 30.13S J F K MOCLDY 67 60 78 S5 30.14F Boston CLOUDY 65 59 81 S10 30.10F Pittsburg MOCLDY 68 64 87 CALM 30.07F Akron MOCLDY 70 61 73 CALM 30.07S Cleveland CLOUDY 73 64 73 SE7 30.04F Cincinnati CLOUDY 78 70 76 SE9 30.03F Columbus PTCLDY 67 63 86 CALM 30.04F Detroit CLOUDY 73 68 84 SE6 30.02F Chicago O`Hare CLOUDY 78 70 76 S3 29.96S Minneapolis PTCLDY 75 62 64 CALM 30.02R Indianapolis CLOUDY 78 71 79 SE7 29.99F Toronto Canada LGT RAIN 68 63 83 CALM 29.99F $$

USA.gov is the U.S. government's official web portal to all federal, state and local government web resources and services.